TimeEDT,TemperatureF,Dew PointF,Humidity,Sea Level PressureIn,VisibilityMPH,Wind Direction,Wind SpeedMPH,Gust SpeedMPH,PrecipitationIn,Events,Conditions,WindDirDegrees,DateUTC
12:48 AM,60.8,60.8,100,29.72,8.0,South,9.2,-,N/A,Rain,Rain,170,2013-05-11 04:48:00
12:53 AM,60.8,60.8,100,29.72,8.0,South,8.1,-,N/A,Rain,Light Rain,190,2013-05-11 04:53:00
12:58 AM,60.4,60.4,100,29.71,10.0,South,8.1,-,0.04,Rain,Light Rain,190,2013-05-11 04:58:00
1:03 AM,60.8,60.8,100,29.71,8.0,SSW,9.2,-,N/A,Rain,Light Rain,210,2013-05-11 05:03:00
1:43 AM,59.0,59.0,100,29.69,10.0,SSW,10.4,17.3,N/A,Rain,Light Rain,210,2013-05-11 05:43:00
1:48 AM,59.0,59.0,100,29.69,10.0,SW,8.1,17.3,N/A,Rain,Light Rain,220,2013-05-11 05:48:00
1:53 AM,59.0,59.0,100,29.69,9.0,SW,5.8,17.3,N/A,Rain,Light Rain,230,2013-05-11 05:53:00
1:58 AM,59.7,59.7,100,29.69,9.0,SW,9.2,-,0.07,Rain,Light Rain,220,2013-05-11 05:58:00
2:03 AM,59.0,59.0,100,29.69,10.0,SW,6.9,-,N/A,Rain,Light Rain,230,2013-05-11 06:03:00
2:08 AM,59.0,59.0,100,29.68,10.0,Variable,6.9,-,N/A,Rain,Light Rain,0,2013-05-11 06:08:00
2:13 AM,59.0,59.0,100,29.68,9.0,WSW,6.9,-,N/A,Rain,Light Rain,240,2013-05-11 06:13:00
2:23 AM,59.0,59.0,100,29.68,8.0,SW,5.8,-,N/A,Rain,Light Rain,230,2013-05-11 06:23:00
2:38 AM,59.0,59.0,100,29.67,4.0,WSW,11.5,17.3,N/A,Rain,Heavy Rain,240,2013-05-11 06:38:00
2:43 AM,59.0,59.0,100,29.67,2.0,SW,11.5,21.9,N/A,Rain,Heavy Rain,230,2013-05-11 06:43:00
2:48 AM,59.0,59.0,100,29.67,2.0,WSW,8.1,21.9,N/A,Rain,Heavy Rain,240,2013-05-11 06:48:00
2:53 AM,59.0,59.0,100,29.67,4.0,WSW,8.1,-,N/A,Rain,Light Rain,240,2013-05-11 06:53:00
2:58 AM,59.0,59.0,100,29.67,7.0,WSW,6.9,-,0.16,Rain,Light Rain,250,2013-05-11 06:58:00
3:03 AM,59.0,59.0,100,29.67,4.0,SW,8.1,-,N/A,Rain,Rain,230,2013-05-11 07:03:00
3:08 AM,59.0,59.0,100,29.67,2.5,WSW,6.9,-,N/A,Rain,Heavy Rain,240,2013-05-11 07:08:00
3:18 AM,59.0,59.0,100,29.67,6.0,SW,8.1,-,N/A,Rain,Light Rain,230,2013-05-11 07:18:00
3:23 AM,59.0,59.0,100,29.67,10.0,WSW,9.2,-,N/A,Rain,Light Rain,240,2013-05-11 07:23:00
3:33 AM,59.0,59.0,100,29.66,10.0,SW,8.1,-,N/A,,Light Drizzle,230,2013-05-11 07:33:00
3:58 AM,58.8,58.8,100,29.66,9.0,SW,8.1,-,0.10,,Drizzle,230,2013-05-11 07:58:00
4:03 AM,59.0,59.0,100,29.65,9.0,SSW,8.1,-,N/A,,Light Drizzle,210,2013-05-11 08:03:00
4:08 AM,59.0,59.0,100,29.65,10.0,SSW,8.1,-,N/A,,Light Drizzle,210,2013-05-11 08:08:00
4:13 AM,59.0,59.0,100,29.65,10.0,SSW,6.9,-,N/A,,Overcast,210,2013-05-11 08:13:00
4:24 AM,59.0,59.0,100,29.65,10.0,SSW,8.1,-,N/A,,Light Drizzle,200,2013-05-11 08:24:00
4:34 AM,59.0,59.0,100,29.65,10.0,SSW,8.1,-,N/A,,Light Drizzle,210,2013-05-11 08:34:00
4:43 AM,59.0,59.0,100,29.64,10.0,SSW,8.1,-,N/A,,Overcast,210,2013-05-11 08:43:00
4:58 AM,58.6,58.6,100,29.64,10.0,SSW,8.1,-,0.00,,Overcast,210,2013-05-11 08:58:00
5:03 AM,59.0,59.0,100,29.64,10.0,SSW,8.1,-,N/A,,Mostly Cloudy,210,2013-05-11 09:03:00
5:18 AM,59.0,59.0,100,29.64,10.0,SW,6.9,-,N/A,,Mostly Cloudy,220,2013-05-11 09:18:00
5:58 AM,59.5,59.5,100,29.64,10.0,SSW,11.5,-,N/A,,Overcast,210,2013-05-11 09:58:00
6:58 AM,60.1,60.1,100,29.65,10.0,SW,8.1,-,N/A,,Overcast,220,2013-05-11 10:58:00
7:07 AM,60.8,60.8,100,29.64,7.0,SW,10.4,16.1,N/A,,Light Drizzle,220,2013-05-11 11:07:00
7:12 AM,60.8,60.8,100,29.65,5.0,SW,10.4,-,N/A,,Light Drizzle,220,2013-05-11 11:12:00
7:17 AM,59.0,59.0,100,29.65,4.0,SW,10.4,17.3,N/A,,Light Drizzle,220,2013-05-11 11:17:00
7:27 AM,59.0,59.0,100,29.65,6.0,SW,8.1,-,N/A,,Light Drizzle,220,2013-05-11 11:27:00
7:29 AM,59.0,59.0,100,29.65,8.0,SSW,8.1,-,N/A,,Overcast,210,2013-05-11 11:29:00
7:38 AM,59.0,59.0,100,29.64,10.0,SSW,8.1,-,N/A,,Light Drizzle,210,2013-05-11 11:38:00
7:58 AM,59.5,59.5,100,29.65,4.0,SW,10.4,-,0.02,Rain,Rain,230,2013-05-11 11:58:00
8:03 AM,59.0,59.0,100,29.64,2.0,SW,9.2,-,N/A,Rain,Heavy Rain,230,2013-05-11 12:03:00
8:13 AM,59.0,59.0,100,29.64,5.0,WSW,11.5,18.4,N/A,Rain,Light Rain,240,2013-05-11 12:13:00
8:38 AM,55.4,55.4,100,29.66,2.5,WSW,18.4,29.9,N/A,Rain,Light Rain,250,2013-05-11 12:38:00
8:48 AM,53.6,53.6,100,29.66,3.0,West,12.7,25.3,N/A,Rain,Light Rain,260,2013-05-11 12:48:00
8:58 AM,53.6,53.6,100,29.67,4.0,WSW,12.7,19.6,0.07,Rain,Light Rain,250,2013-05-11 12:58:00
9:16 AM,51.8,51.8,100,29.67,7.0,WSW,17.3,26.5,N/A,,Overcast,250,2013-05-11 13:16:00
9:58 AM,49.8,49.8,100,29.68,10.0,SW,12.7,20.7,0.01,,Overcast,230,2013-05-11 13:58:00
10:03 AM,50.0,50.0,100,29.68,10.0,WSW,17.3,21.9,N/A,,Overcast,240,2013-05-11 14:03:00
10:23 AM,50.0,50.0,100,29.68,10.0,SW,12.7,23.0,N/A,,Overcast,230,2013-05-11 14:23:00
10:38 AM,50.0,50.0,100,29.69,10.0,SW,11.5,20.7,N/A,,Overcast,230,2013-05-11 14:38:00
10:58 AM,50.7,50.7,100,29.70,10.0,WSW,12.7,24.2,N/A,,Overcast,240,2013-05-11 14:58:00
11:03 AM,50.0,50.0,100,29.70,10.0,WSW,13.8,23.0,N/A,,Overcast,240,2013-05-11 15:03:00
11:23 AM,51.8,50.0,94,29.70,10.0,SW,16.1,24.2,N/A,,Overcast,230,2013-05-11 15:23:00
11:58 AM,50.4,48.4,93,29.72,10.0,WSW,13.8,24.2,N/A,,Overcast,250,2013-05-11 15:58:00
12:58 PM,50.5,47.1,88,29.72,10.0,WSW,16.1,29.9,N/A,,Overcast,240,2013-05-11 16:58:00
1:53 PM,51.8,46.4,82,29.71,10.0,WSW,16.1,26.5,N/A,,Overcast,240,2013-05-11 17:53:00
1:58 PM,52.2,46.6,81,29.72,10.0,WSW,17.3,27.6,N/A,,Overcast,250,2013-05-11 17:58:00
2:38 PM,51.8,46.4,82,29.72,10.0,SW,16.1,24.2,N/A,,Overcast,230,2013-05-11 18:38:00
2:58 PM,51.6,46.8,83,29.73,10.0,WSW,15.0,24.2,N/A,,Overcast,250,2013-05-11 18:58:00
3:28 PM,51.8,46.4,82,29.71,10.0,WSW,12.7,20.7,N/A,,Overcast,240,2013-05-11 19:28:00
3:58 PM,51.6,45.5,80,29.72,10.0,WSW,13.8,27.6,N/A,,Overcast,250,2013-05-11 19:58:00
4:58 PM,52.2,45.5,78,29.72,10.0,WSW,10.4,-,N/A,,Overcast,240,2013-05-11 20:58:00
5:58 PM,50.7,45.0,81,29.73,10.0,WSW,8.1,-,N/A,,Overcast,240,2013-05-11 21:58:00
6:58 PM,49.6,45.5,86,29.75,10.0,Variable,6.9,-,N/A,,Overcast,0,2013-05-11 22:58:00
7:58 PM,49.3,45.7,87,29.75,10.0,SSW,8.1,-,N/A,,Mostly Cloudy,200,2013-05-11 23:58:00
8:58 PM,48.7,45.7,89,29.75,10.0,SW,5.8,-,N/A,,Overcast,230,2013-05-12 00:58:00
9:38 PM,48.2,46.4,93,29.74,10.0,SSW,6.9,-,N/A,,Scattered Clouds,210,2013-05-12 01:38:00
9:58 PM,46.9,46.4,98,29.75,10.0,SSW,8.1,-,N/A,,Partly Cloudy,200,2013-05-12 01:58:00
10:58 PM,46.8,46.8,100,29.74,10.0,SW,5.8,-,N/A,,Mostly Cloudy,230,2013-05-12 02:58:00
11:58 PM,48.6,47.7,97,29.72,10.0,WSW,5.8,-,N/A,,Overcast,240,2013-05-12 03:58:00